• En España
  • Lista de países
  • Para 7 días
  • Temperatura del agua
  • Mapa Satelital
  • El tiempo en el mapa
  • Informadores
  • user-avatar
    Iniciar sesión

    Tiempo cada hora Bolshaya Osinovka

    Hoy, 22 Junio, Viernes

    Tiempo Temperatura Precipitaciones Viento Presión Humedad
    00:00 +13°C° 0 mm 5 mps 743 mmHg 70%
    01:00 +13°C° 0 mm 5 mps 744 mmHg 69%
    02:00 +13°C° 0 mm 6 mps 744 mmHg 69%
    03:00 +11°C° 0 mm 6 mps 744 mmHg 68%
    04:00 +13°C° 0 mm 6 mps 745 mmHg 70%
    05:00 +13°C° 0 mm 6 mps 745 mmHg 72%
    06:00 +14°C° 0 mm 6 mps 746 mmHg 74%
    07:00 +15°C° 0 mm 6 mps 746 mmHg 71%
    08:00 +16°C° 0 mm 7 mps 746 mmHg 68%
    09:00 +17°C° 0 mm 7 mps 746 mmHg 65%
    10:00 +18°C° 0 mm 7 mps 747 mmHg 62%
    11:00 +20°C° 0 mm 7 mps 747 mmHg 60%
    12:00 +21°C° 0 mm 7 mps 747 mmHg 57%
    13:00 +22°C° 0 mm 6 mps 747 mmHg 57%
    14:00 +22°C° 0 mm 6 mps 748 mmHg 56%
    15:00 +22°C° 0 mm 6 mps 748 mmHg 56%
    16:00 +22°C° 0 mm 5 mps 748 mmHg 60%
    17:00 +21°C° 0 mm 4 mps 748 mmHg 65%
    18:00 +21°C° 0 mm 3 mps 748 mmHg 69%
    19:00 +19°C° 0 mm 3 mps 748 mmHg 72%
    20:00 +17°C° 0 mm 2 mps 748 mmHg 75%
    21:00 +16°C° 0 mm 2 mps 749 mmHg 79%
    22:00 +15°C° 0 mm 2 mps 749 mmHg 80%
    23:00 +15°C° 0 mm 2 mps 749 mmHg 81%

    Mañana, 23 Junio, Sábado

    Tiempo Temperatura Precipitaciones Viento Presión Humedad
    00:00 +14°C° 0 mm 2 mps 749 mmHg 83%
    01:00 +14°C° 0 mm 2 mps 749 mmHg 84%
    02:00 +14°C° 0 mm 2 mps 749 mmHg 86%
    03:00 +14°C° 0 mm 2 mps 749 mmHg 88%
    04:00 +15°C° 0 mm 2 mps 749 mmHg 87%
    05:00 +17°C° 0 mm 2 mps 749 mmHg 85%
    06:00 +18°C° 0 mm 2 mps 749 mmHg 84%
    07:00 +20°C° 0 mm 2 mps 750 mmHg 80%
    08:00 +23°C° 0 mm 2 mps 750 mmHg 76%
    09:00 +24°C° 0 mm 3 mps 750 mmHg 72%
    10:00 +25°C° 0,1 mm 3 mps 750 mmHg 70%
    11:00 +26°C° 0,1 mm 3 mps 749 mmHg 68%
    12:00 +27°C° 0,1 mm 3 mps 749 mmHg 66%
    13:00 +27°C° 0,1 mm 3 mps 749 mmHg 65%
    14:00 +27°C° 0,1 mm 3 mps 749 mmHg 65%
    15:00 +28°C° 0,1 mm 3 mps 749 mmHg 65%
    16:00 +27°C° 0,3 mm 3 mps 749 mmHg 69%
    17:00 +27°C° 0,3 mm 2 mps 749 mmHg 74%
    18:00 +26°C° 0,3 mm 1 mps 749 mmHg 78%
    19:00 +25°C° 0 mm 1 mps 749 mmHg 81%
    20:00 +24°C° 0 mm 1 mps 749 mmHg 83%
    21:00 +22°C° 0 mm 1 mps 749 mmHg 86%
    22:00 +22°C° 0 mm 1 mps 749 mmHg 87%
    23:00 +21°C° 0 mm 1 mps 749 mmHg 89%

    Pasado mañana, 24 Junio, Domingo

    Tiempo Temperatura Precipitaciones Viento Presión Humedad
    00:00 +21°C° 0 mm 1 mps 749 mmHg 90%
    01:00 +21°C° 0 mm 1 mps 750 mmHg 91%
    02:00 +20°C° 0 mm 1 mps 750 mmHg 92%
    03:00 +20°C° 0 mm 1 mps 750 mmHg 92%
    04:00 +21°C° 0 mm 1 mps 750 mmHg 90%
    05:00 +22°C° 0 mm 1 mps 750 mmHg 88%
    06:00 +23°C° 0 mm 1 mps 750 mmHg 86%
    07:00 +25°C° 0,1 mm 1 mps 751 mmHg 81%
    08:00 +26°C° 0,1 mm 1 mps 751 mmHg 77%
    09:00 +27°C° 0,1 mm 1 mps 751 mmHg 73%
    10:00 +28°C° 0,5 mm 1 mps 751 mmHg 70%
    11:00 +29°C° 0,5 mm 1 mps 751 mmHg 67%
    12:00 +30°C° 0,5 mm 1 mps 751 mmHg 64%
    13:00 +30°C° 0,7 mm 1 mps 751 mmHg 63%
    14:00 +30°C° 0,7 mm 1 mps 751 mmHg 62%
    15:00 +30°C° 0,7 mm 1 mps 751 mmHg 61%
    16:00 +29°C° 0,6 mm 1 mps 751 mmHg 66%
    17:00 +29°C° 0,6 mm 1 mps 751 mmHg 71%
    18:00 +28°C° 0,6 mm 1 mps 750 mmHg 76%
    19:00 +27°C° 0,2 mm 1 mps 751 mmHg 79%
    20:00 +25°C° 0,2 mm 1 mps 751 mmHg 82%
    21:00 +24°C° 0,2 mm 1 mps 751 mmHg 84%
    22:00 +23°C° 0 mm 1 mps 751 mmHg 86%
    23:00 +23°C° 0 mm 1 mps 751 mmHg 87%

    25 Junio, Lunes

    Tiempo Temperatura Precipitaciones Viento Presión Humedad
    00:00 +22°C° 0 mm 1 mps 751 mmHg 88%
    01:00 +22°C° 0 mm 1 mps 751 mmHg 88%
    02:00 +22°C° 0 mm 1 mps 752 mmHg 89%
    03:00 +21°C° 0 mm 1 mps 752 mmHg 89%
    04:00 +22°C° 0 mm 1 mps 752 mmHg 87%
    05:00 +23°C° 0 mm 1 mps 752 mmHg 85%
    06:00 +24°C° 0 mm 1 mps 752 mmHg 83%
    07:00 +26°C° 0,2 mm 1 mps 752 mmHg 79%
    08:00 +27°C° 0,2 mm 2 mps 752 mmHg 74%
    09:00 +28°C° 0,2 mm 2 mps 752 mmHg 69%
    10:00 +29°C° 0,3 mm 2 mps 752 mmHg 66%
    11:00 +30°C° 0,3 mm 2 mps 752 mmHg 63%
    12:00 +30°C° 0,3 mm 2 mps 752 mmHg 59%
    13:00 +30°C° 0,1 mm 2 mps 752 mmHg 60%
    14:00 +30°C° 0,1 mm 2 mps 752 mmHg 61%
    15:00 +30°C° 0,1 mm 2 mps 752 mmHg 61%
    16:00 +30°C° 0,4 mm 2 mps 752 mmHg 65%
    17:00 +29°C° 0,4 mm 2 mps 752 mmHg 69%
    18:00 +29°C° 0,4 mm 2 mps 752 mmHg 74%
    19:00 +27°C° 0,1 mm 1 mps 752 mmHg 76%
    20:00 +26°C° 0,1 mm 1 mps 752 mmHg 79%
    21:00 +24°C° 0,1 mm 1 mps 752 mmHg 81%
    22:00 +24°C° 0 mm 1 mps 752 mmHg 82%
    23:00 +23°C° 0 mm 1 mps 752 mmHg 82%

    26 Junio, Martes

    Tiempo Temperatura Precipitaciones Viento Presión Humedad
    00:00 +23°C° 0 mm 1 mps 752 mmHg 83%
    01:00 +22°C° 0,2 mm 1 mps 752 mmHg 85%
    02:00 +21°C° 0,2 mm 2 mps 752 mmHg 86%
    03:00 +20°C° 0,2 mm 2 mps 752 mmHg 88%
    04:00 +21°C° 0,4 mm 2 mps 752 mmHg 87%
    05:00 +23°C° 0,4 mm 2 mps 752 mmHg 86%
    06:00 +23°C° 0,4 mm 2 mps 752 mmHg 85%
    07:00 +24°C° 0,1 mm 2 mps 752 mmHg 82%
    08:00 +26°C° 0,1 mm 3 mps 752 mmHg 78%
    09:00 +27°C° 0,1 mm 3 mps 752 mmHg 74%
    10:00 +27°C° 0,5 mm 3 mps 752 mmHg 72%
    11:00 +28°C° 0,5 mm 3 mps 752 mmHg 69%
    12:00 +28°C° 0,5 mm 3 mps 752 mmHg 67%
    13:00 +29°C° 0,1 mm 3 mps 752 mmHg 65%
    14:00 +29°C° 0,1 mm 3 mps 752 mmHg 63%
    15:00 +29°C° 0,1 mm 3 mps 752 mmHg 62%
    16:00 +29°C° 0 mm 3 mps 752 mmHg 65%
    17:00 +28°C° 0 mm 2 mps 753 mmHg 69%
    18:00 +28°C° 0 mm 2 mps 753 mmHg 73%
    19:00 +26°C° 0 mm 2 mps 753 mmHg 77%
    20:00 +24°C° 0 mm 2 mps 753 mmHg 81%
    21:00 +23°C° 0 mm 2 mps 753 mmHg 85%
    22:00 +21°C° 0 mm 2 mps 753 mmHg 87%
    23:00 +21°C° 0 mm 2 mps 753 mmHg 90%

    27 Junio, Miércoles

    Tiempo Temperatura Precipitaciones Viento Presión Humedad
    00:00 +20°C° 0 mm 2 mps 752 mmHg 92%
    01:00 +20°C° 0 mm 2 mps 753 mmHg 93%
    02:00 +19°C° 0 mm 2 mps 753 mmHg 94%
    03:00 +19°C° 0 mm 3 mps 753 mmHg 95%
    04:00 +20°C° 0 mm 3 mps 753 mmHg 93%
    05:00 +21°C° 0 mm 3 mps 753 mmHg 91%
    06:00 +21°C° 0 mm 3 mps 753 mmHg 88%
    07:00 +23°C° 0,2 mm 4 mps 753 mmHg 85%
    08:00 +25°C° 0,2 mm 4 mps 753 mmHg 81%
    09:00 +26°C° 0,2 mm 4 mps 753 mmHg 77%
    10:00 +27°C° 0,5 mm 4 mps 753 mmHg 74%
    11:00 +28°C° 0,5 mm 3 mps 753 mmHg 70%
    12:00 +28°C° 0,5 mm 3 mps 752 mmHg 67%
    13:00 +29°C° 0,5 mm 3 mps 752 mmHg 66%
    14:00 +29°C° 0,5 mm 3 mps 752 mmHg 65%
    15:00 +29°C° 0,5 mm 3 mps 752 mmHg 63%
    16:00 +29°C° 0,1 mm 3 mps 752 mmHg 67%
    17:00 +28°C° 0,1 mm 3 mps 752 mmHg 71%
    18:00 +27°C° 0,1 mm 3 mps 752 mmHg 75%
    19:00 +26°C° 0 mm 3 mps 752 mmHg 80%
    20:00 +24°C° 0 mm 3 mps 752 mmHg 84%
    21:00 +22°C° 0 mm 3 mps 752 mmHg 88%
    22:00 +21°C° 0 mm 3 mps 752 mmHg 89%
    23:00 +21°C° 0 mm 3 mps 752 mmHg 90%
    Mostrar más